Theta_e
320 324 334 336 346 343 345 344 342 350 351 346 347 349 349 348 348 353 347 347 344 341 342 344 342 339 340 347 352 346 343 342 338 339 339 339 340 342 342 331 341 343 345 345 344 341 334 336 339
320 328 330 340 345 346 347 343 344 344 344 346 345 345 347 352 350 348 348 347 343 341 342 342 341 339 342 345 347 346 335 332 330 331 333 332 331 332 342 343 337 344 344 344 344 342 336 337 338
328 327 336 343 343 346 346 343 348 346 345 345 344 343 345 350 349 347 347 346 344 341 342 342 342 339 342 343 346 337 331 330 329 330 330 332 333 335 334 338 341 342 344 344 344 343 339 336 338
321 329 335 342 345 342 344 343 347 347 344 343 343 347 345 347 348 347 347 346 342 339 340 342 342 336 340 350 342 330 329 329 327 327 326 328 330 337 339 338 340 341 342 341 338 335 336 338 339
321 330 339 344 344 342 341 341 347 348 346 343 341 345 349 347 347 347 347 345 339 338 339 341 341 335 340 342 331 329 329 327 327 327 328 329 328 333 337 341 340 340 341 339 335 334 338 338 338
328 328 339 343 338 338 341 342 347 347 345 343 343 345 348 347 348 347 346 342 338 336 339 340 342 334 333 331 329 329 327 326 328 330 329 329 330 332 332 336 339 340 337 335 333 332 337 338 337
327 329 333 334 339 339 341 341 347 346 345 344 341 344 345 347 347 346 345 342 337 337 339 340 341 340 327 329 328 329 327 327 328 329 328 328 328 329 330 330 330 331 332 332 331 331 335 337 337
325 328 330 332 336 343 339 344 344 345 347 341 340 347 345 347 346 344 343 340 337 337 337 339 340 339 339 339 329 328 327 327 329 328 328 328 329 328 327 328 329 330 331 331 331 333 334 336 334
319 327 329 330 338 341 338 342 345 345 346 342 342 345 342 345 344 343 341 339 337 338 337 338 339 340 339 340 338 330 328 327 329 330 329 330 335 335 334 329 327 328 328 328 329 329 331 331 329
324 328 328 325 332 327 329 332 342 347 348 347 345 342 344 344 343 342 340 337 335 335 336 337 340 338 339 339 340 341 339 338 337 336 334 337 333 334 335 333 330 329 328 328 328 327 326 328 335
321 329 323 323 324 325 324 323 332 340 344 346 347 345 345 344 342 340 338 336 333 333 335 335 338 338 338 337 340 340 339 339 336 332 333 334 335 334 337 337 337 334 332 334 332 332 333 334 336
324 322 322 323 321 321 322 322 328 337 337 344 345 344 345 345 343 339 337 335 333 333 334 334 335 337 335 337 338 339 338 337 337 335 333 334 336 336 336 339 339 337 338 337 336 336 335 334 333
322 322 321 321 320 320 319 322 325 338 343 344 342 343 345 344 341 338 333 334 333 331 333 334 334 332 335 332 336 337 336 333 335 334 334 334 335 336 337 338 339 339 338 339 339 339 339 338 336
320 320 321 320 322 320 326 336 332 341 343 343 343 344 344 343 342 339 337 336 335 334 332 333 334 331 332 329 332 331 332 332 329 333 334 334 335 335 336 338 340 341 340 339 338 339 339 339 337
318 320 321 321 323 328 335 340 339 342 343 344 344 343 342 343 341 340 340 339 339 337 335 332 330 331 325 326 327 332 332 332 329 331 335 336 336 336 337 339 341 342 341 338 337 338 339 338 336
320 321 322 323 322 336 336 333 339 344 345 345 343 342 341 342 341 340 340 340 340 340 338 335 330 329 324 325 327 330 331 331 330 328 328 335 336 335 336 340 341 341 340 342 342 341 338 338 336
320 321 322 323 324 338 336 337 334 344 344 345 344 342 341 341 340 340 340 339 339 340 340 337 331 330 323 323 326 327 328 327 330 329 329 329 332 333 336 340 341 340 342 342 342 341 339 337 336
320 320 322 325 323 323 328 326 326 340 346 345 345 343 342 341 341 339 338 338 338 339 339 338 336 331 328 325 325 330 331 327 327 328 329 331 333 335 337 340 339 339 343 343 342 340 339 337 337
319 320 322 322 322 322 323 324 324 324 345 348 346 345 344 343 341 340 339 338 337 336 337 337 336 336 334 332 330 330 330 331 331 330 328 330 332 334 335 339 339 339 342 344 344 340 337 336 337
320 320 321 321 320 321 322 324 336 337 337 342 347 347 346 345 344 342 341 340 339 337 335 334 335 335 335 334 332 331 333 333 334 335 332 331 330 332 336 337 339 340 342 344 342 338 337 337 336
320 320 320 321 320 320 323 325 338 337 339 343 345 343 342 343 345 343 341 341 340 338 336 335 334 332 333 333 334 334 334 333 334 333 334 333 332 332 333 336 337 341 340 343 341 339 338 337 336
319 319 319 320 321 323 321 326 332 343 344 349 348 347 347 345 338 338 339 340 340 339 337 336 335 333 332 331 333 334 334 335 335 335 336 336 333 333 334 336 339 339 340 341 341 340 337 334 335
319 318 319 320 322 323 323 323 345 349 352 352 347 343 342 345 343 340 339 338 336 335 336 335 333 332 331 331 331 334 335 336 337 337 337 335 335 335 336 336 337 341 340 341 341 340 336 334 335
320 321 321 320 322 325 323 323 353 357 355 351 342 338 337 336 338 341 342 343 344 343 336 332 334 336 334 333 333 334 335 337 337 338 338 335 333 333 334 335 337 335 334 339 340 339 336 336 337
322 324 325 326 325 325 329 341 357 353 350 344 342 339 336 336 343 345 345 344 344 344 344 343 334 334 334 335 335 335 336 337 338 340 340 340 338 336 335 336 335 333 334 338 338 339 337 337 336
323 325 326 326 326 325 337 349 361 351 345 345 342 337 337 342 345 341 341 342 343 343 343 344 345 338 335 335 336 337 338 338 338 339 340 341 338 338 337 337 338 336 337 335 337 337 337 336 337
321 323 323 328 324 328 347 351 344 347 345 345 339 338 343 345 341 341 339 339 340 340 340 339 341 338 338 338 339 340 339 337 336 334 332 331 331 333 333 335 338 337 335 334 333 334 336 336 333
323 322 325 325 330 329 344 347 349 346 348 344 343 345 347 342 341 340 338 337 340 339 338 337 337 337 338 338 338 337 336 335 332 332 333 332 334 335 334 335 335 334 334 334 333 333 333 332 329
322 323 325 327 327 327 340 343 343 348 348 347 349 346 345 344 341 339 338 335 340 341 339 337 335 335 335 335 335 334 333 333 334 331 332 334 334 333 333 333 332 332 332 330 329 329 326 323 321
321 326 330 327 332 333 335 346 347 346 347 346 347 346 343 342 341 338 338 338 337 338 337 337 337 335 336 336 336 335 334 333 333 333 334 333 332 331 330 329 330 330 328 324 322 318 318 318 318
Wind_Speed
7 7 4 2 2 0 3 2 2 3 3 2 9 4 3 2 1 2 4 7 19 23 20 18 17 17 17 17 16 15 16 14 13 12 12 12 12 10 9 10 11 10 10 10 10 9 10 10 10
9 6 1 0 1 3 3 0 3 1 4 10 9 5 2 2 3 7 11 12 20 21 20 18 19 18 18 18 16 17 14 14 13 12 11 11 10 10 10 9 10 10 10 9 8 8 9 9 9
7 2 2 1 1 2 2 2 5 10 3 5 5 5 2 3 3 13 4 20 21 19 19 18 19 19 18 17 16 15 14 14 13 12 11 10 9 9 10 10 10 10 9 10 7 7 6 7 6
3 3 2 1 4 1 2 2 7 11 3 4 6 5 3 5 6 7 17 21 21 19 18 17 18 18 18 16 16 15 15 14 13 12 11 11 10 9 9 9 11 9 9 10 9 9 10 10 7
1 0 1 2 1 3 4 2 13 6 5 6 4 4 3 4 5 14 19 22 21 20 18 16 18 18 17 16 15 15 14 14 13 12 12 11 11 10 9 8 8 10 9 9 8 9 10 11 9
1 1 1 2 2 4 3 2 8 3 4 6 5 7 5 3 10 15 17 20 19 20 17 16 17 17 17 15 15 15 14 13 12 11 11 11 11 11 10 9 8 7 8 9 8 7 9 7 6
0 0 2 1 3 3 4 1 4 3 3 4 11 7 3 6 11 15 16 18 18 18 16 16 16 16 16 15 14 14 14 14 12 11 11 11 10 10 10 10 9 8 7 6 6 6 7 6 5
1 1 1 0 2 3 3 3 0 2 2 8 6 4 5 11 17 15 17 17 17 17 16 15 16 15 14 13 15 15 15 15 13 12 11 11 10 9 9 9 9 9 9 8 7 6 7 5 4
1 2 0 1 1 3 4 3 4 4 8 4 7 4 4 25 21 19 18 16 17 17 17 16 16 15 14 13 13 15 16 15 14 12 10 9 7 7 7 8 8 8 8 7 7 7 7 5 3
2 2 3 1 2 3 3 5 6 7 6 7 6 8 19 24 24 22 22 20 20 20 19 18 17 17 15 13 13 13 13 13 12 11 10 7 6 6 6 6 7 7 7 6 6 5 6 5 3
4 3 3 3 8 7 5 5 5 9 8 10 13 15 19 23 22 22 22 23 25 22 19 20 19 18 18 15 15 14 13 13 14 15 13 9 7 5 4 4 4 4 5 5 4 4 3 4 5
4 5 4 4 4 5 8 5 4 14 2 4 10 20 20 20 19 22 22 23 23 24 22 21 21 21 21 16 16 15 14 15 15 16 16 13 11 9 7 6 6 5 5 5 6 5 5 5 6
5 4 7 8 9 8 6 11 9 7 2 7 15 18 20 19 21 22 23 22 21 22 24 24 24 25 22 22 17 17 17 18 17 18 18 16 15 12 10 10 9 8 7 7 6 6 6 6 7
4 4 5 5 7 5 5 3 4 5 9 11 16 16 18 19 23 21 21 21 22 21 24 24 25 25 23 25 22 21 20 19 20 21 21 19 16 16 14 12 10 10 10 10 9 8 8 6 7
1 4 4 6 2 4 2 4 5 3 10 12 12 14 16 18 21 23 24 23 24 24 20 26 27 25 28 28 26 21 20 19 21 22 23 22 20 19 17 13 12 12 12 14 13 12 11 9 8
2 2 5 2 1 3 4 4 2 7 12 11 12 13 15 18 23 24 24 25 23 22 22 23 23 25 29 28 25 23 20 21 22 23 24 26 24 22 19 16 15 14 15 12 12 11 10 12 10
1 6 5 4 1 4 4 3 4 4 10 12 14 14 15 16 20 24 24 24 23 23 21 22 25 25 29 30 27 25 23 24 22 23 24 26 25 24 23 19 18 19 14 14 14 14 13 12 13
5 5 3 4 3 2 3 9 9 4 11 15 14 14 14 16 20 25 25 24 22 21 22 23 25 27 27 27 28 22 21 26 26 25 25 27 27 26 24 21 24 23 16 17 15 14 12 12 13
3 2 2 3 1 4 3 5 10 7 10 14 12 12 14 18 12 17 21 22 22 21 22 27 28 35 33 26 21 22 26 25 27 30 32 32 31 28 26 23 26 25 21 20 13 10 11 13 15
4 4 6 4 6 3 3 8 5 7 8 9 10 10 13 14 9 10 13 18 23 26 31 31 32 31 36 28 26 21 16 21 23 25 34 35 33 31 27 28 27 25 21 19 16 18 11 16 17
4 9 6 5 3 3 5 3 4 6 10 12 11 10 10 13 15 12 13 16 18 21 28 31 36 35 36 36 29 24 19 17 18 28 33 33 35 32 30 31 31 25 27 24 27 25 19 14 17
8 11 11 8 4 5 2 10 3 9 4 15 15 14 14 14 14 12 12 15 20 23 27 32 36 36 39 40 35 31 29 27 30 25 21 23 30 30 29 28 27 29 31 31 31 26 21 20 20
5 3 11 8 7 3 4 4 7 9 9 20 17 16 15 14 13 9 8 9 12 15 17 22 31 33 36 35 35 30 30 26 22 16 17 21 21 24 22 24 24 19 23 30 33 26 23 21 23
11 4 4 3 3 6 4 3 7 7 10 13 15 16 16 15 14 12 13 12 13 14 10 9 12 16 22 26 28 27 25 23 16 12 11 14 19 21 22 22 19 14 18 27 26 24 25 22 24
8 6 4 6 5 2 3 4 4 4 6 8 12 14 14 13 14 15 15 17 17 18 17 13 6 10 14 17 18 20 21 19 17 13 10 10 12 15 18 18 18 19 24 26 20 20 33 24 21
10 8 4 5 6 5 2 4 4 2 4 8 9 11 12 14 14 14 15 17 20 22 21 19 13 6 2 5 9 11 12 11 10 8 7 7 8 4 7 10 12 14 13 13 21 20 17 12 12
6 7 2 6 2 4 3 3 3 2 4 9 10 11 13 13 13 13 16 17 17 18 20 19 18 11 7 5 5 6 7 8 8 8 6 5 5 11 11 9 6 3 5 6 14 8 5 3 4
4 10 5 0 7 3 4 4 5 3 4 7 11 12 13 13 12 12 14 17 17 18 19 23 20 19 17 15 12 9 9 10 9 3 2 5 6 6 9 9 4 4 4 4 2 6 7 12 11
4 4 5 4 2 5 6 4 5 3 3 5 9 10 11 11 11 11 13 15 16 18 19 19 22 23 22 21 17 13 10 5 6 5 3 7 9 8 9 13 17 20 18 18 24 24 24 23 19
1 5 5 5 5 3 1 5 5 4 3 4 6 8 9 9 10 9 12 14 15 18 17 19 19 20 18 14 11 9 6 8 8 7 9 16 20 23 23 23 24 23 22 19 23 21 19 15 16
Wind_Direction
153 138 132 188 203 91 97 27 324 81 108 105 150 194 188 65 198 354 121 151 150 150 152 155 152 150 147 143 135 136 127 124 122 122 123 125 124 121 127 126 135 138 131 128 126 128 127 123 120
154 138 131 198 34 50 67 232 149 221 107 124 123 115 140 106 86 103 137 147 151 150 151 156 156 154 151 146 139 138 131 126 121 118 114 112 115 125 129 127 138 128 135 126 121 122 123 126 124
142 127 270 34 90 30 341 337 119 121 146 144 121 55 34 44 81 146 147 150 153 153 154 157 158 156 153 146 144 138 132 129 125 122 122 121 121 118 118 129 129 139 119 115 110 100 108 116 112
164 181 133 292 97 118 259 25 150 132 77 71 107 88 100 6 136 157 146 153 154 154 155 161 159 157 154 149 144 140 136 132 128 127 124 121 120 115 114 119 129 135 132 133 136 124 126 117 104
50 269 78 111 28 287 261 313 171 160 128 129 126 113 76 59 112 144 151 158 159 158 159 162 162 161 158 155 147 143 138 135 133 130 122 116 113 111 112 108 116 132 137 139 139 131 135 128 116
156 280 139 63 321 289 304 244 182 164 129 133 108 129 116 104 135 152 159 162 164 162 161 166 167 165 163 160 154 146 143 139 135 127 124 120 115 111 112 114 117 127 134 144 143 136 143 141 128
93 341 63 345 337 307 357 99 206 157 157 156 133 135 103 162 154 159 164 164 164 167 166 166 169 171 167 167 159 153 149 144 139 135 132 123 118 112 109 111 117 122 127 138 146 144 151 148 121
99 42 119 232 3 33 15 108 162 200 206 129 160 157 166 172 160 159 163 165 168 173 176 174 172 173 171 172 167 162 157 153 149 146 137 130 123 117 113 111 115 121 127 133 139 140 153 156 142
147 98 60 151 103 50 159 181 172 160 158 190 167 147 132 149 153 155 161 169 175 182 186 183 180 180 177 174 180 172 168 165 163 159 152 143 143 133 123 127 117 119 127 135 142 144 150 165 174
162 189 189 209 205 311 274 246 179 207 182 179 150 94 137 151 159 167 175 182 188 191 192 191 188 186 184 183 183 185 184 182 183 176 170 169 166 152 143 135 126 129 131 138 146 153 158 165 202
152 202 192 235 244 284 295 270 212 218 226 209 194 159 158 163 172 180 188 191 192 195 197 198 195 192 191 190 192 191 191 191 191 188 187 188 191 193 181 172 162 157 156 151 159 169 198 231 233
205 216 205 280 234 277 285 300 251 211 290 162 169 164 161 173 180 187 193 195 195 197 199 200 201 199 199 198 200 200 197 196 197 199 198 200 204 207 212 215 211 206 209 196 195 203 215 230 238
217 211 204 250 276 270 279 261 262 231 146 135 140 158 173 179 187 194 197 198 199 203 204 205 202 202 203 206 205 205 206 205 204 205 207 209 213 221 225 233 236 237 241 243 233 225 228 240 248
193 229 270 277 261 260 258 309 186 90 140 144 150 169 178 185 191 194 201 202 204 207 209 207 208 208 206 210 213 213 213 213 212 211 214 216 223 232 237 241 245 250 248 249 250 255 255 245 240
183 254 255 227 275 280 252 229 232 145 166 157 163 177 182 196 199 202 205 207 209 211 209 210 211 212 214 215 218 219 221 220 220 221 223 224 231 237 238 246 253 257 257 254 258 257 258 254 245
212 232 257 111 261 185 238 224 344 179 180 176 177 186 190 202 206 211 212 215 217 217 214 216 211 216 221 221 221 223 226 224 227 227 228 230 234 240 245 248 254 260 262 257 256 259 252 241 240
51 238 218 199 62 178 248 258 32 200 219 203 192 194 198 205 215 218 219 221 223 224 221 221 221 218 224 225 227 228 230 231 232 234 232 234 237 240 244 248 257 264 266 259 262 256 253 245 245
201 207 218 206 130 60 229 270 297 240 230 236 215 202 206 210 215 217 221 226 232 232 232 234 231 228 231 227 230 231 233 237 236 237 237 239 239 240 243 248 255 259 253 254 257 253 257 263 272
168 192 249 282 269 303 185 274 294 323 244 252 253 229 223 226 221 221 224 225 232 237 235 239 235 236 231 225 222 230 231 231 233 235 237 237 239 242 244 246 250 252 244 243 246 242 267 285 292
172 219 243 262 293 261 226 289 35 17 320 299 280 266 266 273 260 245 223 219 223 228 236 237 240 237 237 230 228 225 232 236 235 239 240 241 240 241 241 241 245 244 240 235 230 240 240 264 271
196 228 222 245 293 250 270 211 49 9 40 41 26 351 303 281 274 256 241 229 227 229 234 237 242 241 242 234 229 229 228 235 239 237 242 243 242 243 246 246 246 245 243 232 237 235 232 235 256
238 212 227 227 235 250 321 257 42 353 34 20 14 6 352 328 298 278 256 245 242 237 242 244 244 240 241 237 223 220 220 221 230 238 244 238 243 244 243 247 247 253 253 239 241 232 216 229 231
224 177 214 213 218 248 168 240 3 360 360 7 14 18 11 7 13 354 343 322 301 292 262 248 250 237 240 231 224 221 224 234 238 238 237 243 249 246 245 246 253 261 269 265 255 233 220 235 244
147 117 93 108 174 214 100 244 41 9 342 358 12 21 19 17 24 29 28 22 16 11 352 280 245 235 236 231 229 219 225 227 231 233 233 239 239 238 236 238 241 254 269 265 254 238 234 243 239
193 173 160 188 188 165 36 130 40 8 9 355 359 9 16 24 32 33 27 25 24 21 12 5 321 240 231 224 222 220 221 219 220 223 234 231 233 239 246 247 251 265 259 245 260 260 259 232 242
183 199 194 176 192 140 105 130 99 350 338 354 21 30 30 38 38 33 30 26 26 24 19 13 356 328 255 207 210 213 203 201 207 219 228 228 231 293 349 321 299 280 271 304 279 280 254 276 259
159 202 80 105 70 143 104 108 218 260 349 23 43 52 47 39 35 33 31 28 28 27 25 29 33 50 69 100 134 158 181 180 164 159 147 160 321 334 344 352 339 261 291 285 288 284 265 109 87
224 141 158 122 165 145 140 168 136 168 8 32 49 51 44 44 42 41 40 35 39 41 42 52 58 64 74 81 81 95 113 128 133 127 324 346 3 7 8 4 353 335 318 346 69 68 81 110 90
149 168 69 101 4 198 159 175 150 163 16 34 40 38 42 43 41 39 37 35 44 48 46 53 61 68 75 80 79 87 97 70 13 22 32 11 16 25 66 81 82 80 79 86 85 84 87 88 94
32 162 157 200 176 69 322 127 141 136 90 51 50 51 47 44 48 38 41 39 42 46 37 41 44 54 60 64 60 61 51 60 69 63 77 85 88 91 87 83 80 79 85 85 88 89 94 97 93